When you browse on this site, cookies collect data to enhance your experience and personalize the content and advertising you see.
Visit our Privacy Policy to learn more. By continuing to use the site, you agree to this use of cookies and data.

Hourly Weather Maturín

Today, 27 September, Sunday

Time Temperature Precipitation Wind Pressure Humidity
00:00 +26°C° 0 mm 1 mps 754 mmHg 93%
01:00 +26°C° 0 mm 1 mps 754 mmHg 94%
02:00 +25°C° 0 mm 1 mps 753 mmHg 94%
03:00 +25°C° 0 mm 1 mps 753 mmHg 94%
04:00 +25°C° 0 mm 1 mps 753 mmHg 94%
05:00 +25°C° 0 mm 1 mps 753 mmHg 94%
06:00 +26°C° 0 mm 1 mps 753 mmHg 90%
07:00 +27°C° 0 mm 1 mps 754 mmHg 85%
08:00 +27°C° 0 mm 0 mps 754 mmHg 81%
09:00 +30°C° 0 mm 1 mps 754 mmHg 73%
10:00 +32°C° 0 mm 1 mps 754 mmHg 65%
11:00 +34°C° 0 mm 1 mps 754 mmHg 57%
12:00 +35°C° 0 mm 1 mps 753 mmHg 55%
13:00 +35°C° 0 mm 1 mps 752 mmHg 53%
14:00 +36°C° 0 mm 1 mps 752 mmHg 50%
15:00 +34°C° 0.4 mm 1 mps 751 mmHg 58%
16:00 +34°C° 0.4 mm 2 mps 751 mmHg 66%
17:00 +31°C° 0.4 mm 2 mps 751 mmHg 73%
18:00 +30°C° 0.2 mm 2 mps 751 mmHg 79%
19:00 +28°C° 0.2 mm 2 mps 752 mmHg 84%
20:00 +27°C° 0.2 mm 1 mps 753 mmHg 89%
21:00 +27°C° 0 mm 1 mps 753 mmHg 91%
22:00 +26°C° 0 mm 1 mps 753 mmHg 92%
23:00 +26°C° 0 mm 1 mps 753 mmHg 93%

Tomorrow, 28 September, Monday

Time Temperature Precipitation Wind Pressure Humidity
00:00 +26°C° 0.1 mm 1 mps 753 mmHg 93%
01:00 +26°C° 0.1 mm 1 mps 753 mmHg 93%
02:00 +26°C° 0.1 mm 1 mps 752 mmHg 93%
03:00 +25°C° 0 mm 1 mps 752 mmHg 94%
04:00 +25°C° 0 mm 1 mps 752 mmHg 94%
05:00 +23°C° 0 mm 0 mps 752 mmHg 94%
06:00 +26°C° 0 mm 1 mps 752 mmHg 91%
07:00 +27°C° 0 mm 1 mps 753 mmHg 88%
08:00 +29°C° 0 mm 1 mps 753 mmHg 85%
09:00 +30°C° 0.4 mm 1 mps 754 mmHg 79%
10:00 +31°C° 0.4 mm 2 mps 754 mmHg 73%
11:00 +34°C° 0.4 mm 2 mps 754 mmHg 67%
12:00 +34°C° 0.9 mm 2 mps 753 mmHg 69%
13:00 +34°C° 0.9 mm 2 mps 752 mmHg 70%
14:00 +34°C° 0.9 mm 2 mps 752 mmHg 72%
15:00 +31°C° 1.6 mm 2 mps 752 mmHg 77%
16:00 +30°C° 1.6 mm 2 mps 752 mmHg 83%
17:00 +29°C° 1.6 mm 2 mps 752 mmHg 88%
18:00 +28°C° 0.2 mm 2 mps 752 mmHg 90%
19:00 +28°C° 0.2 mm 2 mps 753 mmHg 91%
20:00 +27°C° 0.2 mm 1 mps 753 mmHg 92%
21:00 +27°C° 0.1 mm 1 mps 753 mmHg 93%
22:00 +26°C° 0.1 mm 1 mps 754 mmHg 94%
23:00 +26°C° 0.1 mm 1 mps 754 mmHg 95%

Day after tomorrow, 29 September, Tuesday

Time Temperature Precipitation Wind Pressure Humidity
00:00 +26°C° 0.9 mm 1 mps 754 mmHg 96%
01:00 +26°C° 0.9 mm 1 mps 753 mmHg 96%
02:00 +26°C° 0.9 mm 1 mps 753 mmHg 97%
03:00 +26°C° 0.9 mm 1 mps 753 mmHg 97%
04:00 +25°C° 0.9 mm 1 mps 753 mmHg 97%
05:00 +25°C° 0.9 mm 1 mps 753 mmHg 97%
06:00 +26°C° 0.5 mm 1 mps 754 mmHg 95%
07:00 +27°C° 0.5 mm 1 mps 754 mmHg 93%
08:00 +28°C° 0.5 mm 1 mps 755 mmHg 90%
09:00 +29°C° 1.2 mm 1 mps 755 mmHg 84%
10:00 +31°C° 1.2 mm 1 mps 755 mmHg 78%
11:00 +32°C° 1.2 mm 2 mps 755 mmHg 72%
12:00 +32°C° 1.1 mm 2 mps 755 mmHg 74%
13:00 +31°C° 1.1 mm 2 mps 754 mmHg 77%
14:00 +31°C° 1.1 mm 1 mps 753 mmHg 79%
15:00 +31°C° 0.5 mm 2 mps 753 mmHg 81%
16:00 +30°C° 0.5 mm 2 mps 753 mmHg 84%
17:00 +29°C° 0.5 mm 2 mps 753 mmHg 87%
18:00 +28°C° 0 mm 2 mps 753 mmHg 89%
19:00 +28°C° 0 mm 2 mps 754 mmHg 91%
20:00 +27°C° 0 mm 2 mps 754 mmHg 93%
21:00 +26°C° 0 mm 2 mps 754 mmHg 94%
22:00 +26°C° 0 mm 2 mps 755 mmHg 94%
23:00 +26°C° 0 mm 2 mps 755 mmHg 94%

30 September, Wednesday

Time Temperature Precipitation Wind Pressure Humidity
00:00 +25°C° 0 mm 1 mps 754 mmHg 95%
01:00 +25°C° 0 mm 1 mps 754 mmHg 96%
02:00 +25°C° 0 mm 1 mps 753 mmHg 96%
03:00 +25°C° 0 mm 1 mps 754 mmHg 97%
04:00 +25°C° 0 mm 1 mps 754 mmHg 97%
05:00 +25°C° 0 mm 1 mps 754 mmHg 97%
06:00 +26°C° 0 mm 1 mps 754 mmHg 93%
07:00 +25°C° 0 mm 0 mps 755 mmHg 89%
08:00 +27°C° 0 mm 0 mps 756 mmHg 85%
09:00 +30°C° 0 mm 1 mps 755 mmHg 77%
10:00 +32°C° 0 mm 1 mps 755 mmHg 69%
11:00 +34°C° 0 mm 2 mps 755 mmHg 61%
12:00 +34°C° 0.2 mm 2 mps 755 mmHg 61%
13:00 +35°C° 0.2 mm 2 mps 754 mmHg 60%
14:00 +35°C° 0.2 mm 2 mps 753 mmHg 59%
15:00 +32°C° 0.8 mm 2 mps 753 mmHg 67%
16:00 +31°C° 0.8 mm 2 mps 753 mmHg 74%
17:00 +30°C° 0.8 mm 2 mps 753 mmHg 82%
18:00 +28°C° 0.1 mm 2 mps 753 mmHg 85%
19:00 +27°C° 0.1 mm 2 mps 753 mmHg 89%
20:00 +26°C° 0.1 mm 2 mps 754 mmHg 92%
21:00 +26°C° 0 mm 2 mps 754 mmHg 93%
22:00 +26°C° 0 mm 2 mps 754 mmHg 93%
23:00 +25°C° 0 mm 1 mps 754 mmHg 94%

1 October, Thursday

Time Temperature Precipitation Wind Pressure Humidity
00:00 +25°C° 0 mm 1 mps 754 mmHg 94%
01:00 +25°C° 0 mm 1 mps 753 mmHg 95%
02:00 +25°C° 0 mm 1 mps 753 mmHg 95%
03:00 +25°C° 0 mm 1 mps 753 mmHg 95%
04:00 +25°C° 0 mm 1 mps 753 mmHg 95%
05:00 +25°C° 0 mm 1 mps 753 mmHg 95%
06:00 +26°C° 0 mm 1 mps 753 mmHg 91%
07:00 +27°C° 0 mm 1 mps 754 mmHg 87%
08:00 +29°C° 0 mm 1 mps 754 mmHg 84%
09:00 +30°C° 0.8 mm 1 mps 754 mmHg 80%
10:00 +31°C° 0.8 mm 2 mps 754 mmHg 76%
11:00 +33°C° 0.8 mm 3 mps 754 mmHg 73%
12:00 +33°C° 0.2 mm 3 mps 753 mmHg 72%
13:00 +31°C° 0.2 mm 2 mps 753 mmHg 72%
14:00 +31°C° 0.2 mm 2 mps 752 mmHg 72%
15:00 +31°C° 0.2 mm 2 mps 752 mmHg 74%
16:00 +30°C° 0.2 mm 3 mps 752 mmHg 77%
17:00 +30°C° 0.2 mm 3 mps 751 mmHg 79%
18:00 +29°C° 0.1 mm 2 mps 752 mmHg 82%
19:00 +28°C° 0.1 mm 2 mps 752 mmHg 85%
20:00 +27°C° 0.1 mm 2 mps 753 mmHg 88%
21:00 +27°C° 0.4 mm 2 mps 753 mmHg 91%
22:00 +26°C° 0.4 mm 2 mps 754 mmHg 93%
23:00 +26°C° 0.4 mm 2 mps 754 mmHg 95%

2 October, Friday

Time Temperature Precipitation Wind Pressure Humidity
00:00 +26°C° 0 mm 2 mps 754 mmHg 95%
01:00 +26°C° 0 mm 1 mps 753 mmHg 95%
02:00 +25°C° 0 mm 1 mps 753 mmHg 95%
03:00 +25°C° 0 mm 1 mps 753 mmHg 95%
04:00 +25°C° 0 mm 2 mps 753 mmHg 95%
05:00 +25°C° 0 mm 2 mps 753 mmHg 95%
06:00 +26°C° 0.1 mm 2 mps 754 mmHg 92%
07:00 +26°C° 0.1 mm 2 mps 754 mmHg 90%
08:00 +27°C° 0.1 mm 3 mps 755 mmHg 87%
09:00 +28°C° 0 mm 3 mps 755 mmHg 83%
10:00 +28°C° 0 mm 3 mps 755 mmHg 79%
11:00 +29°C° 0 mm 2 mps 755 mmHg 75%
12:00 +30°C° 0 mm 2 mps 754 mmHg 71%
13:00 +31°C° 0 mm 2 mps 753 mmHg 67%
14:00 +31°C° 0 mm 2 mps 752 mmHg 64%
15:00 +31°C° 0 mm 2 mps 752 mmHg 67%
16:00 +30°C° 0 mm 2 mps 752 mmHg 70%
17:00 +29°C° 0 mm 2 mps 752 mmHg 73%
18:00 +28°C° 0 mm 2 mps 753 mmHg 76%
19:00 +27°C° 0 mm 2 mps 753 mmHg 79%
20:00 +26°C° 0 mm 1 mps 754 mmHg 82%
21:00 +26°C° 0 mm 1 mps 754 mmHg 81%
22:00 +26°C° 0 mm 1 mps 754 mmHg 81%
23:00 +26°C° 0 mm 1 mps 755 mmHg 81%
Show more